Scottsbluff, NE

7:48 PM MST on November 16, 2019 (GMT -0700)
Heilig

Weather History for KBFF - September, 2019

Change the Weather History Date:

Sunday, September 1, 2019

  Actual Average Record
Temperature  
Mean Temperature 77 °F -  
Max Temperature 93 °F 83 °F 100 °F (1996)
Min Temperature 63 °F 53 °F 35 °F (1908)
Cooling Degree Days 12    
Growing Degree Days 27 (Base 50)    
Moisture  
Dew Point 62 °F    
Average Humidity 71    
Maximum Humidity 97    
Minimum Humidity 18    
Precipitation  
Precipitation 0.00 in - - ()
Sea Level Pressure  
Sea Level Pressure 29.94 in    
Wind  
Wind Speed 8 mph (ESE)    
Max Wind Speed 13 mph    
Max Gust Speed -    
Visibility 10 miles    
Events      
Averages and records for this station are not official NWS values.
T = Trace of Precipitation, MM = Missing Value Source: NWS Daily Summary

Daily Weather History Graph

Daily Weather History Graph

Search for Another Location

Airport or City:

Astronomy

Sep. 01, 2019 Rise Set
Actual Time 6:19 AM MDT 7:28 PM MDT
Civil Twilight 5:51 AM MDT 7:56 PM MDT
Nautical Twilight 5:17 AM MDT 8:30 PM MDT
Astronomical Twilight 4:41 AM MDT 9:06 PM MDT
Moon 8:54 AM MDT (9/1) 9:14 PM MDT (9/1)
Length of Visible Light 14h 05m
Length of Day
13h 08m
Waxing Crescent, 8% of the Moon is Illuminated
Sep 1
Waxing Crescent
Sep 5
First Quarter
Sep 13
Full
Sep 21
Last Quarter
Sep 28
New

Hourly Weather History & Observations

Time (MDT) Temp. Heat Index Dew Point Humidity Pressure Visibility Wind Dir Wind Speed Gust Speed Precip Events Conditions
12:53 AM 66.0 °F - 64.0 °F 93% 29.99 in 7.0 mi ESE 9.2 mph - N/A   Clear
1:53 AM 64.9 °F - 63.0 °F 93% 29.97 in 8.0 mi East 6.9 mph - N/A   Clear
2:53 AM 64.0 °F - 63.0 °F 96% 29.96 in 10.0 mi East 9.2 mph - N/A   Clear
3:53 AM 64.0 °F - 62.1 °F 93% 29.94 in 10.0 mi East 10.4 mph - N/A   Clear
4:53 AM 63.0 °F - 62.1 °F 97% 29.94 in 10.0 mi East 8.1 mph - N/A   Clear
5:53 AM 63.0 °F - 61.0 °F 93% 29.96 in 10.0 mi East 8.1 mph - N/A   Clear
6:53 AM 63.0 °F - 62.1 °F 97% 29.96 in 8.0 mi ESE 10.4 mph - N/A   Clear
7:13 AM 64.0 °F - 63.0 °F 96% 30.09 in 8.0 mi SE 10.4 mph - N/A   Partly Cloudy
7:29 AM 64.0 °F - 63.0 °F 96% 30.10 in 8.0 mi SE 12.7 mph - N/A   Mostly Cloudy
7:53 AM 64.0 °F - 63.0 °F 96% 29.99 in 8.0 mi ESE 11.5 mph - N/A   Mostly Cloudy
8:12 AM 66.9 °F - 64.0 °F 90% 30.09 in 10.0 mi ESE 12.7 mph - N/A   Scattered Clouds
8:53 AM 69.1 °F - 64.0 °F 84% 29.98 in 10.0 mi ESE 12.7 mph - N/A   Clear
9:02 AM 70.0 °F - 64.0 °F 81% 30.09 in 10.0 mi SE 11.5 mph - N/A   Partly Cloudy
9:53 AM 72.0 °F - 64.0 °F 76% 29.96 in 10.0 mi ESE 8.1 mph - N/A   Clear
10:53 AM 77.0 °F - 64.0 °F 64% 29.95 in 10.0 mi Variable 3.5 mph - N/A   Clear
11:53 AM 82.0 °F 83.8 °F 64.9 °F 56% 29.92 in 10.0 mi Calm Calm - N/A   Clear
12:53 PM 87.1 °F 88.3 °F 64.0 °F 46% 29.90 in 10.0 mi NNE 4.6 mph - N/A   Clear
1:53 PM 89.1 °F 88.8 °F 60.1 °F 38% 29.89 in 10.0 mi Variable 3.5 mph - N/A   Clear
2:53 PM 91.9 °F 91.8 °F 61.0 °F 35% 29.87 in 10.0 mi SW 4.6 mph - N/A   Clear
3:53 PM 91.9 °F 91.2 °F 59.0 °F 33% 29.86 in 10.0 mi South 12.7 mph - N/A   Clear
4:53 PM 91.9 °F 90.6 °F 57.0 °F 31% 29.85 in 10.0 mi South 8.1 mph - N/A   Clear
5:53 PM 91.9 °F 89.5 °F 54.0 °F 27% 29.85 in 10.0 mi South 5.8 mph - N/A   Clear
6:53 PM 88.0 °F 87.1 °F 59.0 °F 37% 29.85 in 10.0 mi South 5.8 mph - N/A   Clear
7:53 PM 75.0 °F - 64.0 °F 69% 29.89 in 10.0 mi East 6.9 mph - N/A   Clear
8:53 PM 73.0 °F - 62.1 °F 68% 29.90 in 10.0 mi ENE 5.8 mph - N/A   Clear
9:53 PM 73.0 °F - 62.1 °F 68% 29.91 in 10.0 mi ENE 6.9 mph - N/A   Clear
10:53 PM 69.1 °F - 61.0 °F 75% 29.92 in 10.0 mi East 5.8 mph - N/A   Clear
11:53 PM 68.0 °F - 64.9 °F 90% 29.91 in 10.0 mi East 5.8 mph - N/A   Clear